User: anonymous   Login
Location: Caltech
(34.1382°N, 118.1253°W)
Time: 03:32:16
(UTC-07:00)
Language:

Meteor 2-4 Rocket - Orbit

View from above orbital plane
View from above orbital plane
View from above satellite
View from above satellite

Ground track
Ground track

The orbit data is extracted from the following two-line orbital elements,

1 11289U 79021B   18113.82758067 +.00000185 +00000-0 +91754-4 0  9991
2 11289 081.2488 221.0733 0076844 072.6210 288.3346 14.11575041014401
Epoch (UTC): 23 April 2018 19:51:42
Eccentricity: 0.0076844
inclination: 81.2488°
perigee height: 798 km
apogee height: 909 km
right ascension of ascending node: 221.0733°
argument of perigee: 72.6210°
revolutions per day: 14.11575041
mean anomaly at epoch: 288.3346°
orbit number at epoch: 1440

The dashed part of the orbit path shows where the satellite is in the earth's shadow,  

DLR